Brisbane, Australia

8:26 AM AEST on March 29, 2017 (GMT +1000)
Brisbane

Weather History for 94578 - May, 2013

Change the Weather History Date:

Thursday, May 23, 2013

  Actual Average Record
Temperature  
Mean Temperature 60 °F -  
Max Temperature 69 °F 71 °F - ()
Min Temperature 52 °F 53 °F - ()
Degree Days  
Heating Degree Days 4    
Growing Degree Days 10 (Base 50)    
Moisture  
Dew Point 51 °F    
Average Humidity 72    
Maximum Humidity 100    
Minimum Humidity 33    
Precipitation  
Precipitation 0.00 in 0.10 in - ()
Sea Level Pressure  
Sea Level Pressure 29.79 in    
Wind  
Wind Speed 7 mph ()    
Max Wind Speed 20 mph    
Max Gust Speed -    
Visibility 7.8 miles    
Events Fog , Rain    
T = Trace of Precipitation, MM = Missing Value Source: Averaged Metar Reports

Daily Weather History Graph

Daily Weather History Graph

Search for Another Location

Airport or City:

Trip Planner

Search our weather history database for the weather conditions in past years. The results will help you decide how hot, cold, wet, or windy it might be!

Date:

Astronomy

May. 23, 2013 Rise Set
Actual Time 6:24 AM AEST 5:03 PM AEST
Civil Twilight 5:59 AM AEST 5:28 PM AEST
Nautical Twilight 5:31 AM AEST 5:56 PM AEST
Astronomical Twilight 5:03 AM AEST 6:24 PM AEST
Moon 3:24 PM AEST (5/23) 3:53 AM AEST (5/23)
Length of Visible Light 11h 28m
Length of Day
10h 38m
Waxing Gibbous, 94% of the Moon is Illuminated
May 23
Waxing Gibbous
May 25
Full
Jun 1
Last Quarter
Jun 9
New
Jun 17
First Quarter

Hourly Weather History & Observations

Time (AEST) Temp. Dew Point Humidity Pressure Visibility Wind Dir Wind Speed Gust Speed Precip Events Conditions
12:00 AM 56 °F 54 °F 90% 29.83 in 12 mi NW 5.8 mph - -   Partly Cloudy
12:00 AM 55.4 °F 53.6 °F 94% 29.83 in 6.2 mi NW 5.8 mph - N/A   Mostly Cloudy
12:30 AM 55.4 °F 55.4 °F 100% 29.80 in 6.2 mi NNW 8.1 mph - N/A   Mostly Cloudy
1:00 AM 56 °F 55 °F 94% 29.82 in - NNW 8.1 mph - -  
1:00 AM 55.4 °F 55.4 °F 100% 29.80 in 6.2 mi NNW 8.1 mph - N/A   Mostly Cloudy
1:30 AM 55.4 °F 55.4 °F 100% 29.80 in 6.2 mi WSW 6.9 mph - N/A   Light Drizzle
1:41 AM 55.4 °F 55.4 °F 100% 29.80 in 3.7 mi West 5.8 mph - N/A Rain Light Rain
2:00 AM 55.4 °F 53.6 °F 94% 29.80 in 4.3 mi WNW 4.6 mph - N/A   Mostly Cloudy
2:30 AM 55.4 °F 53.6 °F 94% 29.77 in 6.2 mi West 2.3 mph - N/A   Mostly Cloudy
3:00 AM 56 °F 54 °F 93% 29.79 in 12 mi WSW 4.6 mph - -   Partly Cloudy
3:00 AM 55.4 °F 55.4 °F 100% 29.77 in 6.2 mi WSW 4.6 mph - N/A   Mostly Cloudy
3:30 AM 55.4 °F 53.6 °F 94% 29.77 in 6.2 mi South 1.2 mph - N/A   Mostly Cloudy
4:00 AM 54 °F 54 °F 99% 29.78 in - Calm Calm - -  
4:00 AM 55.4 °F 53.6 °F 94% 29.77 in - Calm Calm - N/A   Clear
4:10 AM 55.4 °F 53.6 °F 94% 29.77 in 6.2 mi Calm Calm - N/A Fog Shallow Fog
4:30 AM 53.6 °F 53.6 °F 100% 29.77 in 5.6 mi Calm Calm - N/A Fog Fog
5:00 AM 53.6 °F 53.6 °F 100% 29.77 in 5.0 mi Calm Calm - N/A Fog Fog
5:30 AM 53.6 °F 53.6 °F 100% 29.80 in 5.6 mi Calm Calm - N/A   Mostly Cloudy
6:00 AM 55 °F 54 °F 96% 29.80 in 9 mi NW 1.2 mph - -   Partly Cloudy
6:00 AM 55.4 °F 53.6 °F 94% 29.77 in 6.2 mi NW 1.2 mph - N/A   Mostly Cloudy
6:30 AM 53.6 °F 53.6 °F 100% 29.80 in 6.2 mi South 4.6 mph - N/A   Scattered Clouds
6:50 AM 53.6 °F 53.6 °F 100% 29.80 in 6.2 mi SSE 4.6 mph - N/A Fog Shallow Fog
7:00 AM 53 °F 53 °F 99% 29.82 in - South 4.6 mph - -  
7:00 AM 53.6 °F 53.6 °F 100% 29.80 in 6.2 mi South 4.6 mph - N/A   Scattered Clouds
7:30 AM 57.2 °F 55.4 °F 94% 29.83 in 6.2 mi SSW 5.8 mph - N/A   Partly Cloudy
8:00 AM 59.0 °F 55.4 °F 88% 29.83 in 6.2 mi WSW 5.8 mph - N/A   Partly Cloudy
8:30 AM 60.8 °F 55.4 °F 82% 29.83 in 6.2 mi WSW 6.9 mph - N/A   Partly Cloudy
9:00 AM 63 °F 53 °F 62% 29.83 in 16 mi WSW 10.4 mph - -   Smoke
9:00 AM 62.6 °F 53.6 °F 72% 29.83 in 6.2 mi WSW 10.4 mph - N/A   Partly Cloudy
9:30 AM 64.4 °F 51.8 °F 64% 29.83 in 6.2 mi WSW 17.3 mph - N/A   Partly Cloudy
10:00 AM 66 °F 51 °F 48% 29.83 in - WSW 16.1 mph - -  
10:00 AM 66.2 °F 50.0 °F 56% 29.83 in 6.2 mi WSW 16.1 mph - N/A   Partly Cloudy
10:30 AM 66.2 °F 50.0 °F 56% 29.83 in 6.2 mi SW 19.6 mph - N/A   Partly Cloudy
11:00 AM 68.0 °F 48.2 °F 49% 29.80 in 6.2 mi WSW 16.1 mph - N/A   Partly Cloudy
11:30 AM 68.0 °F 48.2 °F 49% 29.80 in 6.2 mi WSW 17.3 mph - N/A   Scattered Clouds
12:00 PM 66 °F 48 °F 42% 29.79 in 19 mi SW 17.3 mph - -   Partly Cloudy
12:00 PM 66.2 °F 48.2 °F 52% 29.77 in 6.2 mi SW 17.3 mph - N/A   Scattered Clouds
12:30 PM 68.0 °F 48.2 °F 49% 29.77 in 6.2 mi WSW 18.4 mph - N/A   Partly Cloudy
1:00 PM 69 °F 48 °F 36% 29.76 in - SW 17.3 mph - -  
1:00 PM 69.8 °F 48.2 °F 46% 29.74 in 6.2 mi SW 17.3 mph - N/A   Partly Cloudy
1:30 PM 69.8 °F 48.2 °F 46% 29.74 in 6.2 mi WSW 18.4 mph - N/A   Partly Cloudy
2:00 PM 69.8 °F 46.4 °F 43% 29.74 in 6.2 mi WSW 17.3 mph - N/A   Partly Cloudy
2:30 PM 68.0 °F 46.4 °F 46% 29.74 in 6.2 mi West 16.1 mph - N/A   Partly Cloudy
3:00 PM 69 °F 47 °F 35% 29.75 in 19 mi WSW 15.0 mph - -   Partly Cloudy
3:00 PM 69.8 °F 48.2 °F 46% 29.74 in 6.2 mi WSW 15.0 mph - N/A   Scattered Clouds
3:30 PM 69.8 °F 46.4 °F 43% 29.74 in 6.2 mi West 15.0 mph - N/A   Scattered Clouds
4:00 PM 69 °F 46 °F 33% 29.76 in - WSW 13.8 mph - -  
4:00 PM 69.8 °F 46.4 °F 43% 29.74 in 6.2 mi WSW 13.8 mph - N/A   Mostly Cloudy
4:30 PM 68.0 °F 46.4 °F 46% 29.77 in 6.2 mi West 15.0 mph - N/A   Mostly Cloudy
5:00 PM 66.2 °F 46.4 °F 49% 29.77 in - West 12.7 mph - N/A   Clear
5:30 PM 64.4 °F 46.4 °F 52% 29.77 in - West 9.2 mph - N/A   Clear
6:00 PM 63 °F 47 °F 46% 29.80 in 19 mi West 10.4 mph - -   Partly Cloudy
6:00 PM 62.6 °F 48.2 °F 59% 29.80 in - West 10.4 mph - N/A   Clear
6:30 PM 62.6 °F 48.2 °F 59% 29.80 in - West 8.1 mph - N/A   Clear
7:00 PM 63 °F 48 °F 47% 29.82 in - West 8.1 mph - -  
7:00 PM 62.6 °F 48.2 °F 59% 29.80 in - West 8.1 mph - N/A   Clear
7:30 PM 60.8 °F 48.2 °F 63% 29.80 in - West 9.2 mph - N/A   Clear
8:00 PM 59.0 °F 50.0 °F 72% 29.83 in - West 8.1 mph - N/A   Clear
8:30 PM 57.2 °F 48.2 °F 72% 29.83 in - West 8.1 mph - N/A   Clear
9:00 PM 57 °F 49 °F 67% 29.84 in 19 mi WSW 6.9 mph - -   Partly Cloudy
9:00 PM 57.2 °F 48.2 °F 72% 29.83 in - WSW 6.9 mph - N/A   Clear
9:30 PM 57.2 °F 48.2 °F 72% 29.83 in - WSW 8.1 mph - N/A   Clear
10:00 PM 57 °F 49 °F 67% 29.83 in - WSW 8.1 mph - -  
10:00 PM 57.2 °F 50.0 °F 77% 29.83 in - WSW 8.1 mph - N/A   Clear
10:30 PM 55.4 °F 48.2 °F 77% 29.83 in - WSW 8.1 mph - N/A   Clear
11:00 PM 55.4 °F 48.2 °F 77% 29.80 in - WSW 8.1 mph - N/A   Clear
11:30 PM 55.4 °F 48.2 °F 77% 29.80 in - SW 6.9 mph - N/A   Clear